Regional Weather Roundup
Issued by NWS

Home | Current Version | Previous Version | Graphics & Text | Print | Product List | Glossary On
Versions: 1 2 3 4 5 6 7 8 9 10 11 12 13 14 15 16 17 18 19 20 21 22 23 24 25 26 27 28 29 30 31 32 33 34 35 36 37 38 39 40 41 42 43 44 45 46 47 48 49 50
000
ASUS43 KLMK 132202
RWRKY
KENTUCKY REGIONAL WEATHER ROUNDUP
NATIONAL WEATHER SERVICE LOUISVILLE KY
500 PM EST WED DEC 13 2017

NOTE "FAIR" INDICATES FEW OR NO CLOUDS BELOW 12,000 FEET
WITH NO SIGNIFICANT WEATHER AND/OR OBSTRUCTIONS TO VISIBILITY.

KYZ001>023-026-027-061>063-070>075-132300-
WESTERN AND SOUTH CENTRAL KENTUCKY

CITY           SKY/WX    TMP DP  RH WIND       PRES   REMARKS
PADUCAH        CLEAR     51  24  34 SW15G29   29.67R
HENDERSON      CLEAR     48  28  46 SW17      29.60R
OWENSBORO      CLEAR     49  25  39 SW23G31   29.60R
HOPKINSVILLE   CLEAR     51  19  28 SW21      29.66F
BOWLING GREEN  CLEAR     48  19  31 SW13      29.66R
GLASGOW        NOT AVBL
$$

KYZ024-025-028>034-038-045-046-053-132300-
NORTH CENTRAL KENTUCKY

CITY           SKY/WX    TMP DP  RH WIND       PRES   REMARKS
LOUISVILLE/SDF PTCLDY    46  17  31 SW20      29.55F
LOUISVILLE/LOU MOCLDY    45  18  34 SW21G28   29.57F
FORT KNOX      PTCLDY    44  17  34 SW14G23   29.56S
$$

KYZ035>037-039>044-047>052-055>060-089>105-132300-
NORTHEAST KENTUCKY

CITY           SKY/WX    TMP DP  RH WIND       PRES   REMARKS
LEXINGTON      CLOUDY    40  11  30 SW17G25   29.54S WCI  31
COVINGTON      MOCLDY    38  14  37 SW20G28   29.47F WCI  28
FRANKFORT      CLOUDY    41  11  29 SW20G30   29.54F
$$

KYZ054-064>069-076>088-106>120-132300-
SOUTHEAST KENTUCKY

CITY           SKY/WX    TMP DP  RH WIND       PRES   REMARKS
JACKSON        MOCLDY    39  10  30 VRB7G17   29.56F WCI  34
LONDON         CLEAR     41   8  25 S12       29.62S
SOMERSET       NOT AVBL
MIDDLESBORO    CLOUDY    40   8  26 SW7       29.68F
MONTICELLO     PTCLDY    44  12  27 SW18G28   29.65F
$$





USA.gov is the U.S. government's official web portal to all federal, state and local government web resources and services.